Find Starlink 31566

NORAD ID: 59475 Int'l Des: 2024-068 Owner: SPXS Country: US Constellation: starlink operational
LEOCIRCULAR

Current View

Loading 3D Globe...

About Starlink 31566

Starlink 31566 (NORAD 59475) is a starlink constellation satellite (v2 mini) launched Apr 10, 2024 by SPXS of US. It operates in LEO, CIRCULAR orbit with a mass of 730.00 kg.

About Starlink 31566

Description loading...

Upcoming Passes

Passes for default location (London). Set your location on the main map for personalized predictions.

Altitude History

Loading altitude history...

Two-Line Element Set

1 59475U 24068W 26169.44659143 .00000576 00000-0 30466-4 0 9991
2 59475 43.0024 185.3659 0001584 273.2025 86.8646 15.27577012123934
Epoch: Jun 18, 2026 • Age: 15 hours

Current Status

Altitude 486.9 km
Velocity 7.62 km/s
Sub-Earth Point -19.39°S, 90.28°E
Launch Date Apr 10, 2024
Age 2.1 years
Type internet

Technical Details

Classification Payload
Mass 730.00 kg
Dry Mass 700.00 kg
Total Mass 730.00 kg
Length 0.30 m
Diameter 4.10 m
Span 29.00 m
Shape Box + pan
Manufacturer SPXS
Bus Type Starlink V2M
Phase Status In Orbit
Owner/State SPXS/US

Most Searched